Simultaneous Nadir Overpasses (SNOs) Predictions

Prediction of SNOs between METOP-B and TERRA Satellite Orbit:

Table of predicted SNOs for the next 14.0 days since TLE Epoch: 10/10/2020
Index Date (METOP-B) Time (METOP-B) Lat,Lon (METOP-B) SZA (METOP-B ) Date (TERRA) Time (TERRA) Lat,Lon (TERRA) SZA (TERRA ) Distance(km) Time Diff (sec)
1 10/12/2020 07:16:46 -81.28, -62.46 88.06 10/12/2020 07:17:47 -81.29, -62.56 88.04 1.65 61
2 10/12/2020 08:07:25 81.29, 105.36 92.02 10/12/2020 08:07:13 81.29, 105.17 91.99 3.19 12
3 10/15/2020 02:51:10 -81.28, 3.91 87.00 10/15/2020 02:52:02 -81.28, 3.83 86.99 1.37 52
4 10/15/2020 03:41:49 81.29, 171.70 93.07 10/15/2020 03:41:28 81.29, 171.53 93.04 2.94 21
5 10/17/2020 22:25:33 -81.28, 70.27 85.97 10/17/2020 22:26:16 -81.28, 70.19 85.96 1.41 43
6 10/17/2020 23:16:12 81.29,-121.97 94.10 10/17/2020 23:15:42 81.28,-122.14 94.06 3.06 30
7 10/20/2020 17:59:57 -81.28, 136.62 84.95 10/20/2020 18:00:31 -81.27, 136.53 84.95 1.81 34
8 10/20/2020 18:50:36 81.29, -55.65 95.11 10/20/2020 18:49:56 81.29, -55.46 95.12 3.31 40
9 10/23/2020 13:34:20 -81.29,-156.66 83.92 10/23/2020 13:34:45 -81.29,-156.79 83.92 2.07 25
